JST651 YSCB-YBCG

Flight info

Callsign JST651
Flight time N/A
Altitude 36000
Route AVBEG W184 MUDGI/N0452F350 H66 URKER Y54 BERNI
Aircraft A320/M-SDE3FGHIRWY/LB1

Departure

Time 2026-05-06 09:50
Airport Canberra Airport (YSCB)

Arrival

Time N/A
Airport Gold Coast Airport (YBCG)
Time Latitude Longitude Altitude Speed Heading
2026-05-06 09:03 -35.30841 149.19138 1880 ft 0 kts 270°
2026-05-06 09:20 -35.30841 149.19137 1880 ft 0 kts 270°
2026-05-06 09:20 -35.30841 149.19136 1880 ft 0 kts 270°
2026-05-06 09:21 -35.30841 149.19135 1880 ft 0 kts 270°
2026-05-06 09:21 -35.30841 149.19134 1880 ft 0 kts 270°
2026-05-06 09:21 -35.30841 149.19133 1880 ft 0 kts 270°
2026-05-06 09:21 -35.30841 149.19131 1880 ft 0 kts 270°
2026-05-06 09:22 -35.30841 149.19129 1880 ft 0 kts 270°
2026-05-06 09:22 -35.30841 149.19127 1880 ft 0 kts 270°
2026-05-06 09:22 -35.30841 149.19126 1880 ft 0 kts 270°
2026-05-06 09:24 -35.30841 149.19138 1880 ft 0 kts 270°
2026-05-06 09:25 -35.30841 149.19137 1880 ft 0 kts 270°
2026-05-06 09:41 -35.30840 149.19150 1880 ft 4 kts 267°
2026-05-06 09:41 -35.30839 149.19182 1880 ft 4 kts 278°
2026-05-06 09:41 -35.30844 149.19207 1880 ft 4 kts 278°
2026-05-06 09:41 -35.30844 149.19226 1880 ft 4 kts 243°
2026-05-06 09:42 -35.30836 149.19241 1880 ft 0 kts 230°
2026-05-06 09:46 -35.30858 149.19230 1880 ft 10 kts 183°
2026-05-06 09:46 -35.30935 149.19239 1880 ft 12 kts 180°
2026-05-06 09:46 -35.31026 149.19239 1880 ft 14 kts 179°
2026-05-06 09:46 -35.31132 149.19240 1880 ft 16 kts 180°
2026-05-06 09:47 -35.31253 149.19240 1880 ft 18 kts 180°
2026-05-06 09:47 -35.31388 149.19240 1880 ft 20 kts 180°
2026-05-06 09:47 -35.31533 149.19241 1880 ft 21 kts 179°
2026-05-06 09:47 -35.31687 149.19241 1880 ft 23 kts 180°
2026-05-06 09:48 -35.31853 149.19240 1880 ft 25 kts 180°
2026-05-06 09:48 -35.31964 149.19259 1880 ft 14 kts 149°
2026-05-06 09:48 -35.32001 149.19309 1880 ft 0 kts 118°
2026-05-06 09:49 -35.32008 149.19329 1880 ft 9 kts 110°
2026-05-06 09:49 -35.32006 149.19418 1880 ft 11 kts 71°
2026-05-06 09:49 -35.31956 149.19446 1880 ft 10 kts
2026-05-06 09:49 -35.31751 149.19446 1880 ft 62 kts 360°
2026-05-06 09:50 -35.31104 149.19444 1880 ft 121 kts 360°
2026-05-06 09:50 -35.30106 149.19442 1881 ft 164 kts
2026-05-06 09:50 -35.28877 149.19443 2185 ft 182 kts
2026-05-06 09:50 -35.27600 149.19570 2808 ft 186 kts
2026-05-06 09:51 -35.26310 149.19717 3446 ft 189 kts
2026-05-06 09:51 -35.24999 149.19882 4086 ft 190 kts
2026-05-06 09:51 -35.23636 149.20060 4455 ft 207 kts
2026-05-06 09:51 -35.22119 149.20250 4704 ft 229 kts
2026-05-06 09:52 -35.20465 149.20453 5024 ft 251 kts
2026-05-06 09:52 -35.18645 149.20673 5467 ft 272 kts
2026-05-06 09:52 -35.16727 149.20905 6232 ft 280 kts
2026-05-06 09:52 -35.14773 149.21137 7054 ft 285 kts
2026-05-06 09:53 -35.12785 149.21312 7850 ft 289 kts 358°
2026-05-06 09:53 -35.10792 149.20942 8606 ft 292 kts 342°
2026-05-06 09:53 -35.08913 149.19964 9341 ft 296 kts 333°
2026-05-06 09:53 -35.07059 149.18833 10054 ft 300 kts 333°
2026-05-06 09:54 -35.05123 149.17654 10286 ft 322 kts 333°
2026-05-06 09:54 -35.03055 149.16395 10437 ft 342 kts 333°
2026-05-06 09:54 -35.00889 149.15081 10868 ft 351 kts 333°
2026-05-06 09:54 -34.98687 149.13750 11420 ft 355 kts 333°
2026-05-06 09:55 -34.96460 149.12407 11970 ft 359 kts 333°
2026-05-06 09:55 -34.94209 149.11053 12495 ft 362 kts 333°
2026-05-06 09:55 -34.91937 149.09687 13000 ft 366 kts 333°
2026-05-06 09:55 -34.89648 149.08312 13482 ft 369 kts 333°
2026-05-06 09:56 -34.87366 149.06941 13935 ft 372 kts 333°
2026-05-06 09:56 -34.84955 149.05664 14380 ft 375 kts 342°
2026-05-06 09:56 -34.82430 149.05009 14801 ft 378 kts 354°
2026-05-06 09:56 -34.79785 149.05030 15216 ft 382 kts
2026-05-06 09:57 -34.77166 149.05625 15621 ft 384 kts 11°
2026-05-06 09:57 -34.74541 149.06285 16022 ft 387 kts 11°
2026-05-06 09:57 -34.71895 149.06947 16406 ft 390 kts 11°
2026-05-06 09:57 -34.69223 149.07613 16779 ft 392 kts 11°
2026-05-06 09:58 -34.66545 149.08281 17138 ft 395 kts 11°
2026-05-06 09:58 -34.63842 149.08955 17485 ft 397 kts 11°
2026-05-06 09:58 -34.61125 149.09631 17822 ft 399 kts 11°
2026-05-06 09:58 -34.58389 149.10309 18155 ft 402 kts 11°
2026-05-06 09:59 -34.55637 149.10989 18476 ft 404 kts 11°
2026-05-06 09:59 -34.52873 149.11672 18786 ft 406 kts 11°
2026-05-06 09:59 -34.50094 149.12363 19087 ft 409 kts 11°
2026-05-06 09:59 -34.47302 149.13057 19377 ft 411 kts 11°
2026-05-06 10:00 -34.44495 149.13755 19662 ft 413 kts 11°
2026-05-06 10:00 -34.41705 149.14444 19935 ft 415 kts 11°
2026-05-06 10:00 -34.38873 149.15143 20204 ft 417 kts 11°
2026-05-06 10:00 -34.36023 149.15848 20460 ft 419 kts 11°
2026-05-06 10:01 -34.33170 149.16553 20701 ft 420 kts 11°
2026-05-06 10:01 -34.30296 149.17264 20936 ft 422 kts 11°
2026-05-06 10:01 -34.27410 149.17976 21167 ft 424 kts 11°
2026-05-06 10:01 -34.24519 149.18686 21387 ft 425 kts 11°
2026-05-06 10:02 -34.21610 149.19400 21601 ft 427 kts 11°
2026-05-06 10:02 -34.18681 149.20121 21804 ft 429 kts 11°
2026-05-06 10:02 -34.15754 149.20843 21996 ft 430 kts 11°
2026-05-06 10:02 -34.12819 149.21566 22175 ft 432 kts 11°
2026-05-06 10:03 -34.09872 149.22290 22355 ft 433 kts 11°
2026-05-06 10:03 -34.06912 149.23018 22526 ft 434 kts 11°
2026-05-06 10:03 -34.03959 149.23744 22688 ft 436 kts 11°
2026-05-06 10:03 -34.00971 149.24477 22845 ft 437 kts 11°
2026-05-06 10:04 -33.97988 149.25207 22999 ft 438 kts 11°
2026-05-06 10:04 -33.94990 149.25939 23146 ft 439 kts 11°
2026-05-06 10:04 -33.91995 149.26669 23294 ft 441 kts 11°
2026-05-06 10:04 -33.89021 149.27394 23436 ft 442 kts 11°
2026-05-06 10:05 -33.86003 149.28131 23824 ft 440 kts 11°
2026-05-06 10:05 -33.82996 149.28862 23939 ft 442 kts 11°
2026-05-06 10:05 -33.79933 149.29606 24066 ft 443 kts 11°
2026-05-06 10:05 -33.76903 149.30344 24191 ft 445 kts 11°
2026-05-06 10:06 -33.73869 149.31086 24317 ft 446 kts 11°
2026-05-06 10:06 -33.70832 149.31828 24441 ft 446 kts 11°
2026-05-06 10:06 -33.67780 149.32572 24567 ft 447 kts 11°
2026-05-06 10:06 -33.64737 149.33311 24692 ft 448 kts 11°
2026-05-06 10:07 -33.61679 149.34054 24817 ft 448 kts 11°
2026-05-06 10:07 -33.58618 149.34797 24942 ft 448 kts 11°
2026-05-06 10:07 -33.55590 149.35531 25066 ft 449 kts 11°
2026-05-06 10:07 -33.52526 149.36272 25191 ft 449 kts 11°
2026-05-06 10:08 -33.49470 149.37013 25315 ft 449 kts 11°
2026-05-06 10:08 -33.46413 149.37756 25440 ft 449 kts 11°
2026-05-06 10:08 -33.43354 149.38495 25565 ft 449 kts 11°
2026-05-06 10:08 -33.40292 149.39232 25496 ft 449 kts 11°
2026-05-06 10:09 -33.37230 149.39969 25868 ft 448 kts 11°
2026-05-06 10:09 -33.34184 149.40706 25991 ft 448 kts 11°
2026-05-06 10:09 -33.31124 149.41446 26117 ft 447 kts 11°
2026-05-06 10:09 -33.28070 149.42184 26241 ft 447 kts 11°
2026-05-06 10:10 -33.25016 149.42918 26367 ft 447 kts 11°
2026-05-06 10:10 -33.21967 149.43650 26491 ft 447 kts 11°
2026-05-06 10:10 -33.18910 149.44382 26617 ft 447 kts 11°
2026-05-06 10:10 -33.15862 149.45111 26741 ft 447 kts 11°
2026-05-06 10:11 -33.12817 149.45840 26866 ft 447 kts 11°
2026-05-06 10:11 -33.09768 149.46569 26991 ft 447 kts 11°
2026-05-06 10:11 -33.06720 149.47299 27116 ft 447 kts 11°
2026-05-06 10:11 -33.03674 149.48031 27241 ft 447 kts 11°
2026-05-06 10:12 -33.00627 149.48765 27365 ft 446 kts 11°
2026-05-06 10:12 -32.97571 149.49502 27491 ft 446 kts 11°
2026-05-06 10:12 -32.94532 149.50229 27615 ft 446 kts 11°
2026-05-06 10:12 -32.91486 149.50953 27740 ft 446 kts 11°
2026-05-06 10:13 -32.88438 149.51676 27865 ft 446 kts 11°
2026-05-06 10:13 -32.85394 149.52400 27990 ft 446 kts 11°
2026-05-06 10:13 -32.82344 149.53128 28116 ft 446 kts 11°
2026-05-06 10:13 -32.79302 149.53853 28241 ft 446 kts 11°
2026-05-06 10:14 -32.76264 149.54578 28366 ft 446 kts 11°
2026-05-06 10:14 -32.73221 149.55304 28491 ft 446 kts 11°
2026-05-06 10:14 -32.70179 149.56027 28616 ft 446 kts 11°
2026-05-06 10:14 -32.67144 149.56746 28740 ft 446 kts 11°
2026-05-06 10:15 -32.64133 149.57460 28882 ft 445 kts 11°
2026-05-06 10:15 -32.61100 149.58180 28990 ft 446 kts 11°
2026-05-06 10:15 -32.55177 149.60428 29009 ft 451 kts 27°